Location: Le Petit-Vavre
(46.5081°N, 1.5239°E)
Time: 14:17:00
(UTC+00:00)

IRS-1A Rocket - Pass Details

Date: 03 March 2021
Orbit: 852 x 930 km, 99.2° (Epoch: 19 April)

Event Time Altitude Azimuth Distance (km) Brightness Sun altitude
Exits shadow 19:46:41 27° 158° (SSE) 1,623 5.3 -21.9°
Maximum altitude 19:49:54 82° 74° (ENE) 886 4.1 -22.5°
Drops below altitude 10° 19:55:29 10° 347° (NNW) 2,512 7.0 -23.4°
Sets 19:57:51 0° 346° (NNW) 3,446 7.8 -23.8°
